Regional Weather Roundup
Issued by NWS

Home | Current Version | Previous Version | Text Only | Print | Product List | Glossary On
Versions: 1 2 3 4 5 6 7 8 9 10 11 12 13 14 15 16 17 18 19 20 21 22 23 24 25 26 27 28 29 30 31 32 33 34 35 36 37 38 39 40 41 42 43 44 45 46 47 48 49 50
000
ASUS43 KDTX 231110
RWRMI
MICHIGAN HOURLY REGIONAL WEATHER ROUNDUP
NATIONAL WEATHER SERVICE DETROIT/PONTIAC MI
600 AM EST SUN NOV 23 2014

NOTE: "FAIR" INDICATES FEW OR NO CLOUDS BELOW 12,000 FEET WITH NO
SIGNIFICANT WEATHER AND/OR OBSTRUCTION TO VISIBILITY.

MIZ047>049-052>055-059>063-066>070-074>076-081>083-231200-
SOUTHEAST LOWER MICHIGAN

CITY           SKY/WX    TMP DP  RH WIND       PRES   REMARKS
ADRIAN         LGT RAIN  44  42  93 S8        29.94F
ALMA           CLOUDY    48  45  91 S8        29.84S
ANN ARBOR      LGT RAIN  44  41  89 S9        29.93F
BAD AXE        CLOUDY    44  44 100 S7        29.87F
DETROIT CITY   LGT RAIN  48  43  82 SW12      29.94S
DETROIT        CLOUDY    45  43  93 S12       29.95S
FLINT          CLOUDY    49  44  83 S7        29.89S
GROSSE ILE     CLOUDY    39  37  93 S9        29.95R
HILLSDALE      CLOUDY    45  45 100 S7        29.91S FOG
HOWELL         LGT RAIN  47  44  90 S9        29.89S

CITY           SKY/WX    TMP DP  RH WIND       PRES   REMARKS
JACKSON        CLOUDY    47  43  86 S10       29.90S
LAMBERTVILLE   LGT RAIN  46  43  87 S5        29.96S
LANSING        CLOUDY    49  45  86 S13       29.87F
LAPEER         NOT AVBL
MASON          LGT RAIN  47  45  93 S5        29.89S
MONROE         DRIZZLE   46  45  93 S7        29.94S
MT. CLEMENS    CLOUDY    47  44  87 SW13      29.90S
PONTIAC        MOCLDY    45  41  86 S7        29.90S
PORT HOPE        N/A     39  37  92 S3        29.86S
PORT HURON     MOCLDY    45  39  81 S8        29.93R
TRI CITIES     CLOUDY    50  44  80 S8        29.86F
YPSILANTI      LGT RAIN  48  42  80 S12       29.94S
$$
MIZ043>046-050>051-056>058-064>065-071>073-077>080-231200-
SOUTHWEST LOWER MICHIGAN

CITY           SKY/WX    TMP DP  RH WIND       PRES   REMARKS
BATTLE CREEK   CLOUDY    49  44  83 S15       29.87S
BENTON HARBOR  CLOUDY    48  45  89 S10       29.81F
BIG RAPIDS     FOG       42  42 100 CALM      29.79S VSB 1/4
COLDWATER      DRIZZLE   48  45  89 S7        29.90S
HOLLAND        CLOUDY    50  46  86 S12       29.82F
GRAND RAPIDS   CLOUDY    47  44  90 S10       29.83F
KALAMAZOO      CLOUDY    47  44  90 S13       29.87S
MARSHALL       CLOUDY    47  43  88 S13       29.88S
MUSKEGON       CLOUDY    51  44  77 S20G30    29.79S
$$
MIZ016>042-231200-
NORTHERN LOWER MICHIGAN

CITY           SKY/WX    TMP DP  RH WIND       PRES   REMARKS
ALPENA         CLOUDY    38  38 100 SE7       29.81S FOG
BEAVER ISLAND  FOG       44  44  98 SE7       29.71F VSB 1
BELLAIRE       CLOUDY    43  42  96 S5        29.75F FOG
CADILLAC       LGT RAIN  42  42 100 S9        29.76F VSB 1/2
CHARLEVOIX     CLOUDY    44  44 100 S9        29.75F FOG
FRANKFORT      CLOUDY    46  46  97 S9        29.72S FOG
GAYLORD        FOG       40  40 100 SW7       29.75F VSB 1/4
GRAYLING       FOG       41  41 100 S6        29.78F VSB 1/4
HARBOR SPRINGS FOG       40  40  99 CALM      29.75F VSB 1
HOUGHTON LAKE  FOG       41  40  96 S6        29.80F VSB 1/2
MANISTEE       CLOUDY    46  45  93 S7        29.75S
OSCODA         CLOUDY    42  42 100 CALM      29.83F FOG
PELLSTON       FOG       37  37 100 CALM      29.76S VSB 1/2
TRAVERSE CITY  CLOUDY    46  43  89 CALM      29.73S FOG
$$
MIZ007>008-015-231200-
EASTERN UPPER MICHIGAN

CITY           SKY/WX    TMP DP  RH WIND       PRES   REMARKS
KINROSS        CLOUDY    36  36 100 SE7       29.76S VSB 1/4
MACKINAC ISLAN CLOUDY    40  40  98 S10       29.75F FOG
NEWBERRY       FOG       37  37 100 S6        29.70F VSB 3/4
S. S. MARIE    MIX PCPN  35  34  96 E5        29.77S VSB 1/4
$$
MIZ004>006-011>014-085-231200-
CENTRAL UPPER MICHIGAN

CITY           SKY/WX    TMP DP  RH WIND       PRES   REMARKS
MANISTIQUE     FOG       38  38 100 SE3       29.68F VSB 1/4
ESCANABA       CLOUDY    43  39  87 S9        29.63F VSB 1/2
MENOMINEE      CLOUDY    43  43 100 S7        29.64S
SAWYER-GWINN   FOG       36  35  96 SE14      29.59F VSB 1/2
$$
MIZ001>003-009>011-084-231200-
WESTERN UPPER MICHIGAN

CITY           SKY/WX    TMP DP  RH WIND       PRES   REMARKS
IRON MOUNTAIN  FOG       35  34  96 SE7       29.59F VSB 1/2
HOUGHTON       CLOUDY    35  31  85 E8        29.52F
COPPER HARBOR    N/A     38  33  82 SW7       29.54F
IRONWOOD       CLOUDY    43  41  93 S6G16     29.44F
$$

ABBREVIATIONS USED IN REMARKS
   TC - TEMPERATURE IN CELSIUS
  WCI - WIND CHILL INDEX
   HX - HEAT INDEX
  VSB - VISIBILITY



USA.gov is the U.S. government's official web portal to all federal, state and local government web resources and services.